Regional Weather Roundup
Issued by NWS Kansas City/Pleasant Hill, MO

Home | Current Version | Previous Version | Text Only | Print | Product List | Glossary On
Versions: 1 2 3 4 5 6 7 8 9 10 11 12 13 14 15 16 17 18 19 20 21 22 23 24 25 26 27 28 29 30 31 32 33 34 35 36 37 38 39 40 41 42 43 44 45 46 47 48 49
479
ASUS43 KEAX 081510
RWREAX

WEATHER ROUNDUP FOR EASTERN KANSAS AND NORTHWEST MISSOURI
NATIONAL WEATHER SERVICE KANSAS CITY/PLEASANT HILL MO
900 AM CST MON FEB 08 2016

KSZ040-057-103>105-MOZ028-029-037-043-081600-
...KANSAS CITY METROPOLITAN AREA...

CITY           SKY/WX    TMP DP  RH WIND       PRES   REMARKS
K.C. INTL      FLURRIES  30  18  60 NW23G44   30.03R WCI  17
K.C. DOWNTOWN  CLOUDY    33  19  56 NW23G35   30.02R WCI  21
LEES SUMMIT    CLOUDY    31  18  58 NW23      30.01R WCI  18
OLATHE - IXD   CLOUDY    31  18  58 NW23G38   30.05R WCI  18
OLATHE - OJC   CLOUDY    31  17  56 NW20G35   30.03R WCI  19
LAWRENCE       CLOUDY    32  18  56 NW20G32   30.08R WCI  20

$$

MOZ001>008-011>017-020>025-030>033-038>040-044>046-053-054-081600-
...NORTHERN AND CENTRAL MISSOURI...

CITY           SKY/WX    TMP DP  RH WIND       PRES   REMARKS
ST. JOSEPH     FLURRIES  29  18  63 N21G33    30.05R WCI  16
MOSBY          CLOUDY    30  19  64 NW23G30   30.02R WCI  17
WARRENSBURG    LGT SNOW  30  25  80 NW18G25   30.01R WCI  18
WHITEMAN AFB   LGT SNOW  29  22  73 NW18G29   29.98R WCI  17
CLINTON          N/A     34  19  55 NW14G30   30.00R WCI  24
SEDALIA        FLURRIES  29  19  66 NW23G37   29.98R WCI  15
WARSAW         NOT AVBL
CHILLICOTHE      N/A     26  13  57 NW21G37   29.99R WCI  12
KIRKSVILLE     FLURRIES  20  10  65 NW17G30   29.91R WCI   5

$$

MOZ041-047>049-056>058-063>065-088>090-097-081600-
...EASTERN AND SOUTHERN MISSOURI...

CITY           SKY/WX    TMP DP  RH WIND       PRES   REMARKS
ST. LOUIS INTL FLURRIES  28  21  74 NW16      29.85R WCI  17
SPIRIT OF STL  CLOUDY    30  15  53 NW20G30   29.86R WCI  17
COLUMBIA       CLOUDY    26  14  60 NW20G33   29.91R WCI  12
JEFFERSON CITY CLOUDY    28  15  58 NW22G35   29.94R WCI  14
ROLLA          CLOUDY    27  20  75 NW22G36   29.88R HAZE    WCI  13
OSAGE BEACH    CLOUDY    30  18  59 W9G18     29.94S WCI  22
SPRINGFIELD    CLOUDY    35  17  47 NW14G28   29.96S WCI  26
BRANSON        CLOUDY    36  16  44 NW24G37   29.99R WCI  24
JOPLIN         CLOUDY    36  20  52 W18       30.06S WCI  26
WEST PLAINS    CLOUDY    35  18  49 W17G25    29.90S WCI  25

$$

IAZ060-094-KSZ022-034>040-054-083-096-NEZ052-066-093-081600-
...KANSAS...SOUTHEAST NEBRASKA AND IOWA...

CITY           SKY/WX    TMP DP  RH WIND       PRES   REMARKS
TOPEKA         CLOUDY    33  17  51 NW22G29   30.11R WCI  21
MANHATTAN      PTSUNNY   33  17  51 NW14G32   30.16R WCI  23
EMPORIA        CLOUDY    35  18  49 NW22G36   30.11R WCI  23
CHANUTE        PTSUNNY   37  20  50 NW22G31   30.10R WCI  26
WICHITA        MOSUNNY   37  15  40 NW29G38   30.21R WCI  25
OMAHA          PTSUNNY   27  17  66 NW30G44   30.04R WCI  11
LINCOLN        CLOUDY    29  17  61 N29G45    30.12R WCI  14
FALLS CITY     CLOUDY    30  19  63 NW23G35   30.06R WCI  17
LAMONI         FLURRIES  21  12  68 NW29G41   29.95R WCI   3
DES MOINES     LGT SNOW  18  11  74 N26G45    29.94R VSB 3/4 WCI  -1

$$





USA.gov is the U.S. government's official web portal to all federal, state and local government web resources and services.